Location: Paderno d�Adda
(45.6667°N, 9.4333°E)
Time: 10:51:06
(UTC+00:00)

ATLAS 3B R/B - Pass Details

Date: 22 January 2021
Orbit: 1006 x 1189 km, 63.8° (Epoch: 24 February)

Event Time Altitude Azimuth Distance (km) Brightness Sun altitude
Rises 06:07:00 0° 167° (SSE) 3,719 6.0 -8.4°
Reaches altitude 10° 06:10:22 10° 150° (SSE) 2,773 5.7 -7.8°
Maximum altitude 06:14:41 19° 107° (ESE) 2,202 5.7 -7.1°
Drops below altitude 10° 06:19:03 10° 65° (ENE) 2,815 5.6 -6.4°
Sets 06:22:29 0° 49° (NE) 3,795 6.0 -5.8°
